星链-5893 (STARLINK-5893 )

导读

STARLINK-5893是美国SpaceX公司星链(Starlink)星座的组网卫星,于2023年3月17日发射升空,属于星链互联网卫星家族的一员。作为近地轨道通信卫星,它主要服务于全球高速卫星互联网的构建,为偏远地区、航海航空等场景提供宽带接入服务,是SpaceX大规模低轨星座部署计划中的组成部分,至今已在轨运行近三年,助力星链全球覆盖能力提升。

Basic Information
目录编号:
55952
目录名称:
STARLINK-5893
国际标识:
2023-037AQ
轨道中心:
EARTH
卫星名称:
星链-5893
卫星全名:
星链-5893 (STARLINK-5893 )
卫星状态:
在轨 (已飞行1267 天)
发射日期:
2023-03-17 UTC
国别 :
美国 (US)
星等 :
--
Orbit Information
数据来源 国际轨道数据
星历时间: 2026-09-04T19:52:39+0800
10小时前
查看轨道信息
半长轴: 6950.187km
偏心率: 0.0003035
轨道倾角: 70.000°
近地点辐角 266.134°
升交点赤经 173.740°
平近点角 93.948°
近地点: 569.94km
远地点: 574.16km
周期: 96.107分钟
每日圈数: 14.983322
Detailed Information
固有亮度:
5
最大亮度:
2.5
卫星平台:
Starlink v1.5
覆盖范围:
全球
运营商:
太空探索技术公司
运营商所在国:
美国
制造商(研发单位):
太空探索技术公司
制造商所在国:
美国
使用方式:
暂无
Satellite Introduction
星链(Starlink)计划是由太空探索技术公司(SpaceX)提出的一个巨型低轨卫星互联网星座项目,计划在2019年至2024年间在太空搭建由约1.2万颗卫星组成的“星链”网络,其中1584颗将部署在地球上空550千米处的近地轨道,并从2020年开始工作。该卫星仍在工作。
2D Orbit Map
3D Orbit Map
Orbit Altitude Analysis Chart
Orbit Inclination Analysis Chart
Orbit Comprehensive Analysis Chart
View Comprehensive Chart
Conjunction Data List
Event ID Objects TCA Miss Dist (km) Collision Risk Probability Collision Risk Index (CRI) Action
CDM_260906-211605-595206-055021
2026-09-06T
21:16:12+0000
2.901 km
极远距离
1.393373E-6 低风险 0.38
CDM_260906-212105-595206-326221
2026-09-06T
21:21:38+0000
2.567 km
极远距离
8.800953E-7 极低风险 0.34